sat.trackr.live / text

‹ back to catalog

STARLINK-36677

NORAD 68178 · 2026-050M

PAYLOAD ACTIVE UNKNOWN

§ Identity

Operator
Country
US
Launch date
2026-03-14
Launch site
AFETR
Launch vehicle
Mass (kg)
RCS (m²)

Purposes: comms

External: N2YO · Heavens-Above · Gunter

§ Orbital elements

Epoch: 2026-09-19T21:14:50.396928Z

Period
93.85 min
Inclination
53.1606°
Eccentricity
0.0001710
Mean motion
15.34417393 rev/d
Perigee alt
461.5 km
Apogee alt
463.8 km
Semi-major
6,840.8 km
B*
6.2729e-4
RAAN
80.5908°
Arg perigee
57.8028°
Mean anomaly
302.3140°
Rev number
3,047

§ Raw data

STARLINK-366771 68178U 26050M   26262.88530552  .00020889  00000+0  62729-3 0  99922 68178  53.1606  80.5908 0001710  57.8028 302.3140 15.34417393 30479

JSON: /api/v1/satellites/68178 · /tle

For live sub-satellite position, see the globe view (requires WebGL).

§ Visibility from observer

Set your observer location to see the next 7 days of passes ≥ 10°. The values pass through the URL so the page stays shareable.

No JS? Fill the form by hand. The geolocation button needs JavaScript.